sat.trackr.live / text

‹ back to catalog

NEXTSAT-1

NORAD 43811 · 2018-099BF

PAYLOAD ACTIVE UNKNOWN

§ Identity

Operator
Country
SKOR
Launch date
2018-12-03
Launch site
AFWTR
Launch vehicle
Mass (kg)
RCS (m²)

External: N2YO · Heavens-Above · Gunter

§ Orbital elements

Epoch: 2026-09-09T16:24:04.857984Z

Period
95.43 min
Inclination
97.4002°
Eccentricity
0.0013389
Mean motion
15.08979457 rev/d
Perigee alt
530.1 km
Apogee alt
548.6 km
Semi-major
6,917.5 km
B*
9.8249e-5
RAAN
292.4270°
Arg perigee
51.6218°
Mean anomaly
308.6211°
Rev number
42,462

§ Raw data

NEXTSAT-11 43811U 18099BF  26252.68338956  .00001494  00000+0  98249-4 0  99922 43811  97.4002 292.4270 0013389  51.6218 308.6211 15.08979457424628

JSON: /api/v1/satellites/43811 · /tle

For live sub-satellite position, see the globe view (requires WebGL).

§ Visibility from observer

Set your observer location to see the next 7 days of passes ≥ 10°. The values pass through the URL so the page stays shareable.

No JS? Fill the form by hand. The geolocation button needs JavaScript.